Weather History for Burley, ID

Change the Weather History Date:

Wednesday, December 12, 2012

  Actual Average Record
Temperature  
Mean Temperature 37 °F 26 °F  
Max Temperature 44 °F 35 °F 59 °F (2010)
Min Temperature 29 °F 18 °F -7 °F (1985)
Degree Days  
Heating Degree Days 28 38  
Month to date heating degree days 326 446  
Since 1 July heating degree days 1614 2134  
Cooling Degree Days 0 0  
Month to date cooling degree days 0 0  
Year to date cooling degree days 546 365  
Moisture  
Dew Point 31 °F    
Average Humidity 79    
Maximum Humidity 96    
Minimum Humidity 62    
Precipitation  
Precipitation T in 0.04 in 0.80 in (1995)
Month to date precipitation 1.16 0.45  
Year to date precipitation 9.97 9.46  
Sea Level Pressure  
Sea Level Pressure 29.73 in    
Wind  
Wind Speed 5 mph (WNW)    
Max Wind Speed 13 mph    
Max Gust Speed 20 mph    
Visibility 10 miles    
Events Rain    
T = Trace of Precipitation, MM = Missing Value Source: NWS Daily Summary

Daily Weather History Graph

Daily Weather History Graph

Search for Another Location

Airport:

Trip Planner

Search our weather history database for the weather conditions in past years. The results will help you decide how hot, cold, wet, or windy it might be!

Date:

Astronomy

Dec. 12, 2012 Rise Set
Actual Time 7:56 AM MST 5:02 PM MST
Civil Twilight 7:24 AM MST 5:34 PM MST
Nautical Twilight 6:48 AM MST 6:09 PM MST
Astronomical Twilight 6:14 AM MST 6:43 PM MST
Moon 7:04 AM MST (12/12) 4:43 PM MST (12/12)
Length of Visible Light 10h 10m
Length of Day
9h 06m
Waning Crescent, 0% of the Moon is Illuminated
Dec 12
Waning Crescent
Dec 13
New
Dec 19
First Quarter
Dec 28
Full
Jan 4
Last Quarter

Hourly Weather History & Observations

Time (MST) Temp. Windchill Dew Point Humidity Pressure Visibility Wind Dir Wind Speed Gust Speed Precip Events Conditions
12:53 AM 36.0 °F 31.1 °F 28.0 °F 73% 29.62 in 10.0 mi SE 5.8 mph - N/A   Clear
1:53 AM 36.0 °F 32.1 °F 28.9 °F 76% 29.60 in 10.0 mi East 4.6 mph - N/A   Scattered Clouds
2:53 AM 35.1 °F 32.2 °F 28.0 °F 76% 29.59 in 10.0 mi North 3.5 mph - N/A   Scattered Clouds
3:53 AM 33.1 °F 30.0 °F 28.0 °F 82% 29.60 in 10.0 mi ESE 3.5 mph - N/A   Clear
4:53 AM 32.0 °F 28.7 °F 28.0 °F 85% 29.60 in 10.0 mi NW 3.5 mph - N/A   Clear
5:53 AM 32.0 °F 26.4 °F 28.0 °F 85% 29.62 in 10.0 mi West 5.8 mph - N/A   Overcast
6:53 AM 36.0 °F 27.1 °F 28.9 °F 76% 29.65 in 10.0 mi West 13.8 mph 19.6 mph N/A   Overcast
7:53 AM 35.1 °F 26.9 °F 32.0 °F 89% 29.68 in 10.0 mi West 11.5 mph - 0.00 in Rain Light Rain
8:53 AM 35.1 °F 29.3 °F 32.0 °F 89% 29.70 in 10.0 mi WSW 6.9 mph - 0.00 in   Overcast
9:53 AM 37.9 °F 33.5 °F 32.0 °F 79% 29.72 in 10.0 mi WSW 5.8 mph - N/A   Overcast
10:53 AM 39.0 °F 33.4 °F 32.0 °F 76% 29.75 in 10.0 mi West 8.1 mph - N/A   Mostly Cloudy
11:53 AM 42.1 °F 37.1 °F 32.0 °F 67% 29.74 in 10.0 mi West 8.1 mph - N/A   Scattered Clouds
12:53 PM 42.1 °F 37.1 °F 32.0 °F 67% 29.74 in 10.0 mi WNW 8.1 mph - N/A   Clear
1:40 PM 42.8 °F 40.1 °F 30.2 °F 61% 29.74 in 10.0 mi West 4.6 mph - N/A   Overcast
1:53 PM 44.1 °F 40.1 °F 32.0 °F 63% 29.74 in 10.0 mi NNW 6.9 mph - N/A   Overcast
2:00 PM 42.8 °F 39.3 °F 32.0 °F 66% 29.74 in 10.0 mi NNW 5.8 mph - N/A   Overcast
2:53 PM 41.0 °F - 30.9 °F 67% 29.76 in 10.0 mi Calm Calm - N/A   Scattered Clouds
3:53 PM 41.0 °F - 32.0 °F 70% 29.79 in 10.0 mi Calm Calm - N/A   Mostly Cloudy
4:53 PM 36.0 °F - 30.9 °F 82% 29.80 in 10.0 mi Calm Calm - N/A   Scattered Clouds
5:53 PM 36.0 °F - 30.9 °F 82% 29.81 in 10.0 mi Calm Calm - N/A   Mostly Cloudy
6:53 PM 34.0 °F - 32.0 °F 92% 29.81 in 10.0 mi Calm Calm - N/A   Overcast
7:53 PM 33.1 °F - 30.9 °F 92% 29.82 in 10.0 mi Calm Calm - N/A   Overcast
8:53 PM 35.1 °F 32.2 °F 30.0 °F 82% 29.82 in 10.0 mi ENE 3.5 mph - N/A   Overcast
9:53 PM 35.1 °F 30.1 °F 30.9 °F 85% 29.81 in 10.0 mi NE 5.8 mph - N/A   Overcast
10:53 PM 34.0 °F - 30.9 °F 89% 29.82 in 10.0 mi Calm Calm - N/A   Overcast
11:53 PM 32.0 °F 28.7 °F 30.0 °F 92% 29.81 in 10.0 mi ESE 3.5 mph - N/A   Mostly Cloudy